This is the latest recevied weather packets stored in our database for station/object OE-11007. If no packets are shown the sender has not sent any weather packets the latest 10 day(s).
| Time | Temp. | Humidity | Pressure | Rain* | Wind** | Luminosity | Snow |
|---|---|---|---|---|---|---|---|
| 1787856084 | 22.22° C | 61% | 1013.7 hPa | 0 mm | - | 0 W/m² | - |
| 1787855710 | 22.78° C | 59% | 1013.6 hPa | 0 mm | - | 0 W/m² | - |
| 1787855111 | 22.78° C | 60% | 1013.3 hPa | 0 mm | - | 0 W/m² | - |
| 1787854284 | 22.78° C | 59% | 1013.3 hPa | 0 mm | - | 0 W/m² | - |
| 1787853911 | 23.33° C | 57% | 1013.1 hPa | 0 mm | - | 7 W/m² | - |
| 1787852723 | 23.89° C | 56% | 1012.7 hPa | 0 mm | - | 28 W/m² | - |
| 1787852110 | 23.89° C | 56% | 1012.9 hPa | 0 mm | - | 28 W/m² | - |
| 1787851511 | 24.44° C | 56% | 1012.9 hPa | 0 mm | - | 41 W/m² | - |
| 1787850684 | 24.44° C | 57% | 1013 hPa | 0 mm | - | 69 W/m² | - |
| 1787850311 | 25° C | 54% | 1012.8 hPa | 0 mm | - | 90 W/m² | - |
| 1787849711 | 25° C | 54% | 1012.8 hPa | 0 mm | - | 76 W/m² | - |
| 1787848884 | 25.56° C | 53% | 1012.8 hPa | 0 mm | - | 69 W/m² | - |
| 1787848511 | 25.56° C | 51% | 1012.5 hPa | 0 mm | - | 124 W/m² | - |
| 1787847911 | 25.56° C | 54% | 1012.6 hPa | 0 mm | - | 166 W/m² | - |
| 1787847084 | 26.11° C | 51% | 1012.4 hPa | 0 mm | - | 249 W/m² | - |
| 1787846711 | 26.67° C | 50% | 1012.5 hPa | 0 mm | - | 277 W/m² | - |
| 1787846111 | 26.67° C | 52% | 1012.4 hPa | 0 mm | - | 325 W/m² | - |
| 1787845283 | 26.67° C | 50% | 1012.4 hPa | 0 mm | - | 353 W/m² | - |
| 1787844911 | 27.22° C | 51% | 1012.4 hPa | 0 mm | - | 401 W/m² | - |
| 1787844311 | 27.22° C | 51% | 1012.4 hPa | 0 mm | - | 346 W/m² | - |
| 1787843484 | 26.67° C | 50% | 1012.6 hPa | 0 mm | - | 367 W/m² | - |
| 1787843111 | 27.22° C | 51% | 1012.4 hPa | 0 mm | - | 422 W/m² | - |
| 1787842511 | 27.22° C | 49% | 1012.4 hPa | 0 mm | - | 463 W/m² | - |
| 1787841684 | 27.22° C | 50% | 1012.4 hPa | 0 mm | - | 505 W/m² | - |
| 1787841311 | 27.22° C | 48% | 1012.5 hPa | 0 mm | - | 567 W/m² | - |
* Rain latest hour (hover to see other rain measurements)
** Current wind speed in m/s (hover to see current wind gust speed)